Погода в Эсто-Садке

Россия / Краснодарский край     43°41′06″N   40°15′21″E
темп.,
°C
ветер,
м/с
пор.,
м/с
влажн.,
%
обл.,
%
осадки,
мм/ч
давл.,
гПа
погр.,
м
16 апреля, пт
пт1600:000всв32797 0.0 102220
03:000всв338076 0.0 102126
06:000всв437795 0.0 102124
09:00+5юв238282 0.0 1018369
12:00+6зюз2389100 0.6 1018388
15:00+5вюв3492100 1.6 1019298
18:00+5в349299 0.3 101996
21:00+3в338399 0.4 102033
17 апреля, сб
сб1700:00+3ю1299100 2.9 1021174
03:00+2ююв23100100 10.9 1022223
06:00+3юв23100100 2.6 1021146
09:00+3ю23100100 7.2 1021272
12:00+3юв3499100 5.2 1021226
15:00+4ююв23100100 11.1 1021185
18:00+4юв2399100 4.1 1022106
21:00+4юв2310095 4.2 1022125
18 апреля, вс
вс1800:00+4в2394100 0.0 102052
03:00+5вюв3492100 0.3 101971
06:00+5юв2395100 0.5 101863
09:00+7вюв349293 2.2 1017128
12:00+9юз4592100 1.6 1015434
15:00+10ю348274 5.5 1017355
18:00+9ююз238599 1.4 1018135
21:00+6в2289100 2.0 101924
19 апреля, пн
пн1900:00+6в2287100 0.0 101919
03:00+6в3385100 0.1 101832
06:00+6вюв3389100 0.1 101842
09:00+8юв3487100 0.3 1016219
12:00+8юв239292 0.6 101786
15:00+12ююв346881 0.9 1014897
18:00+10в457980 0.1 1012129
21:00+9вюв4672100 0.1 101173
20 апреля, вт
вт2000:00+9вюв4581100 0.6 101068
03:00+10вюв5779100 1.0 100883
06:00+8вюв1297100 4.3 100956
09:00+12ю4681100 8.4 1007409
12:00+10ю3596100 2.2 1007259
15:00+6зюз44100100 8.8 1010245
18:00+3вюв1284100 4.7 1015135
21:00+2ююз3597100 5.7 1017493